Regional Weather Roundup
Issued by NWS

Home | Current Version | Previous Version | Graphics & Text | Print | Product List | Glossary On
Versions: 1 2 3 4 5 6 7 8 9 10 11 12 13 14 15 16 17 18 19 20 21 22 23 24 25 26 27 28 29 30 31 32 33 34 35 36 37 38 39 40 41 42 43 44 45 46 47 48 49 50
000
ASUS43 KDMX 210001
RWRIA

WEATHER ROUNDUP FOR IOWA
NATIONAL WEATHER SERVICE DES MOINES IA
600 PM CST MON NOV 20 2017

NOTE: "FAIR" INDICATES FEW OR NO CLOUDS BELOW 12,000 FEET WITH NO
SIGNIFICANT WEATHER AND/OR OBSTRUCTIONS TO VISIBILITY.

* - THESE STATIONS ARE NOT NWS STATIONS...THUS NOT UNDER NWS
QUALITY CONTROL.  THEY ALSO DO NOT REPORT WEATHER SUCH
AS PRECIPITATION OR FOG.

IAZ001>003-012>014-020>022-031>034-043>046-210100-
   NORTHWEST IOWA

CITY           SKY/WX    TMP DP  RH WIND       PRES   REMARKS
CARROLL *      CLOUDY    52  28  40 W14G20    29.63R
CHEROKEE *     PTCLDY    42  28  58 S3        29.60R
DENISON *      CLOUDY    48  28  46 CALM      29.65R
LE MARS *      CLOUDY    39  28  65 CALM      29.60R
ORANGE CITY *  PTCLDY    43  28  56 S6        29.58F
SHELDON *      PTCLDY    45  28  53 SW8       29.56S
SIOUX CITY     CLOUDY    39  28  64 S3        29.61S
6HR MIN TEMP:  37; 6HR MAX TEMP:  54;

SPENCER        PTCLDY    45  29  53 SW8       29.57R
6HR MIN TEMP:  44; 6HR MAX TEMP:  50;

STORM LAKE *   CLOUDY    43  28  56 SW10      29.59F
$$

IAZ055>058-069>071-079>083-090>094-210100-
   SOUTHWEST IOWA

CITY           SKY/WX    TMP DP  RH WIND       PRES   REMARKS
ATLANTIC *     CLOUDY    46  30  53 SW8       29.65R
AUDUBON *      CLOUDY    52  28  40 S8        29.64R
CLARINDA *       N/A     50  28  43 S6          N/A
COUNCIL BLFS * CLEAR     52  28  40 S10       29.64R
CRESTON *      CLOUDY    52  30  43 SW14      29.67R
HARLAN  *      CLOUDY    50  30  46 SW13      29.67R
LAMONI         CLOUDY    54  31  41 SW17      29.67S
6HR MIN TEMP:  53; 6HR MAX TEMP:  61;

RED OAK *      CLOUDY    46  28  49 SW6       29.67R
SHENANDOAH *   PTCLDY    50  30  46 SW7       29.67R
$$

IAZ047>049-059>061-072>074-084-210100-
   CENTRAL IOWA

CITY           SKY/WX    TMP DP  RH WIND       PRES   REMARKS
AMES           CLOUDY    51  33  50 SW10      29.62R
6HR MIN TEMP:  51; 6HR MAX TEMP:  61;

ANKENY *       CLOUDY    55  28  35 SW14G20   29.64R
BOONE *        CLOUDY    52  30  43 SW14      29.60R
CHARITON *     CLOUDY    54  30  40 S15G23    29.66S
DES MOINES     CLOUDY    55  28  35 SW12      29.64R
6HR MIN TEMP:  55; 6HR MAX TEMP:  63;

GRINNELL*      CLOUDY    53  29  39 S16       29.64S
KNOXVILLE *    CLOUDY    55  28  35 SW15      29.63F
MARSHALLTOWN   CLOUDY    53  30  41 SW15      29.61R
6HR MIN TEMP:  53; 6HR MAX TEMP:  60;

NEWTON *       CLOUDY    54  30  40 S14       29.63S
PELLA *        CLOUDY    56  27  33 SW16G22   29.66S
PERRY *          N/A     51  27  38 SW14      29.62R
$$

IAZ004>006-015-016-023>025-035-036-210100-
   NORTH CENTRAL IOWA

CITY           SKY/WX    TMP DP  RH WIND       PRES   REMARKS
ALGONA *       PTCLDY    46  32  57 SW9G16    29.57S
CLARION *      CLOUDY    45  34  65 SW10      29.59S
ESTHERVILLE    CLOUDY    43  30  60 SW14      29.55R
6HR MIN TEMP:  43; 6HR MAX TEMP:  49;

FORT DODGE *   CLOUDY    48  30  49 SW10      29.60R
MASON CITY     PTCLDY    49  28  44 SW15      29.57R
6HR MIN TEMP:  48; 6HR MAX TEMP:  55;

FOREST CITY *    N/A     45  32  61 SW9       29.56S
WEBSTER CITY * CLOUDY    50  30  46 SW13      29.59R
IOWA FALLS *     N/A     52  32  45 SW10      29.61R
$$

IAZ007>011-017>019-026>030-037>042-050>054-066-210100-
   NORTHEAST IOWA

CITY           SKY/WX    TMP DP  RH WIND       PRES   REMARKS
CEDAR RAPIDS   CLOUDY    51  30  44 S12       29.64S
6HR MIN TEMP:  50; 6HR MAX TEMP:  61;

CHARLES CITY * CLOUDY    50  30  46 SW10      29.59R
CLINTON *      CLOUDY    50  33  52 S14       29.69R
DECORAH *      CLOUDY    50  32  50 SW9G16    29.56R
DUBUQUE        CLOUDY    50  30  46 SW17      29.63R
6HR MIN TEMP:  48; 6HR MAX TEMP:  56;

MONTICELLO *   CLOUDY    52  30  43 S13G20    29.63S
OELWEIN *      CLOUDY    50  32  50 SW12      29.60R
WATERLOO       CLOUDY    50  29  44 SW8       29.60R
6HR MIN TEMP:  50; 6HR MAX TEMP:  57;

$$

IAZ064-065-067-068-078-210100-
   EAST CENTRAL IOWA

CITY           SKY/WX    TMP DP  RH WIND       PRES   REMARKS
DAVENPORT      CLOUDY    52  30  43 S15G23    29.72R
6HR MIN TEMP:  52; 6HR MAX TEMP:  59;

IOWA CITY      CLOUDY    54  32  43 S13       29.68S
6HR MIN TEMP:  53; 6HR MAX TEMP:  62;

MT. PLEASANT * CLOUDY    52  31  44 S14       29.72R
MUSCATINE *    CLOUDY    50  32  50 S9        29.71R
QUAD CITIES    CLOUDY    53  32  44 S15       29.70R
6HR MIN TEMP:  52; 6HR MAX TEMP:  59;

$$

IAZ062-063-075>077-085>089-095>099-210100-
   SOUTHEAST IOWA

CITY           SKY/WX    TMP DP  RH WIND       PRES   REMARKS
BURLINGTON     CLOUDY    51  34  52 S15       29.73R
6HR MIN TEMP:  51; 6HR MAX TEMP:  59;

FAIRFIELD *    CLOUDY    55  28  35 SW14      29.70R
FORT MADISON * CLOUDY    55  30  38 SW13      29.74R
KEOKUK *       CLOUDY    55  30  38 SW14      29.74R
OSKALOOSA *      N/A     52  30  43 SW14      29.67F
OTTUMWA        CLOUDY    53  29  39 S13       29.68R
6HR MIN TEMP:  53; 6HR MAX TEMP:  61;

WASHINGTON *   CLOUDY    54  32  43 SW17      29.70R
$$

ABBREVIATIONS USED IN REMARKS
   TC - TEMPERATURES IN CELSIUS
  WCI - WIND CHILL INDEX
   HX - HEAT INDEX
  VSB - VISIBILITY
$$





USA.gov is the U.S. government's official web portal to all federal, state and local government web resources and services.